星链-30278 (STARLINK-30278 )

导读

STARLINK-30278是美国太空探索技术公司Starlink“星链”星座的一颗卫星,于2023年8月22日发射升空。作为星链低轨卫星互联网组网计划的组成部分,它为全球提供高速互联网服务,尤其支持偏远地区网络覆盖,也在通信保障等领域发挥作用,是星链大规模星座部署中的一环。

基本信息
目录编号:
57668
目录名称:
STARLINK-30278
国际标识:
2023-124F
轨道中心:
EARTH
卫星名称:
星链-30278
卫星全名:
星链-30278 (STARLINK-30278 )
卫星状态:
在轨 (已飞行1109 天)
发射日期:
2023-08-22 UTC
国别 :
美国 (US)
星等 :
--
轨道信息
数据来源 国际轨道数据
星历时间: 2026-09-03T23:09:08+0800
20小时前
查看轨道信息
半长轴: 6840.887km
偏心率: 0.0001184
轨道倾角: 53.159°
近地点辐角 80.515°
升交点赤经 98.551°
平近点角 279.599°
近地点: 461.94km
远地点: 463.56km
周期: 93.849分钟
每日圈数: 15.343845
详细信息
固有亮度:
5
最大亮度:
0.3
卫星平台:
Starlink v2.0 mini
覆盖范围:
全球
运营商:
太空探索技术公司
运营商所在国:
美国
制造商(研发单位):
太空探索技术公司
制造商所在国:
美国
使用方式:
暂无
卫星简介
星链(Starlink)计划是由太空探索技术公司(SpaceX)提出的一个巨型低轨卫星互联网星座项目,计划在2019年至2024年间在太空搭建由约1.2万颗卫星组成的“星链”网络,其中1584颗将部署在地球上空550千米处的近地轨道,并从2020年开始工作。该卫星仍在工作。
2D轨道图
3D轨道图
轨道高度分析图
轨道倾角分析图
轨道综合分析图
查看轨道综合分析图
交会数据列表
事件ID 空间交会对象 最接近时刻(TCA) 交会距离 交会风险概率(CRP) 交会风险指数(CRI) 操作
CDM_260905-203905-766805-925521
2026-09-05T
20:39:43+0000
0.453 km
远距离
9.497509E-5 中风险 0.75
CDM_260905-151105-766805-925521
2026-09-05T
15:11:25+0000
0.484 km
远距离
7.98246E-5 中风险 0.73
CDM_260906-073405-766806-995421
2026-09-06T
07:34:28+0000
0.611 km
远距离
6.050581E-5 中风险 0.71
CDM_260906-130205-766806-995421
2026-09-06T
13:02:44+0000
0.660 km
远距离
4.821244E-5 中风险 0.69
CDM_260905-190505-766805-925521
2026-09-05T
19:05:55+0000
1.331 km
极远距离
3.130948E-6 低风险 0.45
CDM_260905-164505-766805-925521
2026-09-05T
16:45:13+0000
1.715 km
极远距离
1.469702E-6 低风险 0.38
CDM_260906-010305-480605-766821
2026-09-06T
01:03:29+0000
2.721 km
极远距离
1.356422E-6 低风险 0.38
CDM_260906-081605-301905-766822
2026-09-06T
08:16:15+0000
2.459 km
极远距离
1.356166E-6 低风险 0.38
CDM_260906-090805-766806-995421
2026-09-06T
09:08:15+0000
2.117 km
极远距离
1.254106E-6 低风险 0.37
CDM_260905-221305-766805-925521
2026-09-05T
22:13:30+0000
1.858 km
极远距离
1.197683E-6 低风险 0.37